カタログに戻る

CZ-6A DEB

運用中PO
NORAD 61807·DEBRIS·🇨🇳 China

打ち上げ Aug 6, 2024 から Taiyuan Satellite Launch Center

Loading…

次のパス (今後24時間)

TLE

最新Source: Space-Track

元期: Sep 13, 2026, 23:34 UTC

1 61807U 24140ABX 26256.98256752  .00000822  00000-0  35251-3 0  9999
2 61807  88.9757 262.4671 0033148 232.4268 127.3912 14.23676124103030

AllMySatでCZ-6A DEBをリアルタイム追跡

Download on the App Store